WA7ZVY-4 Weather Reports


time (UTC)temp
F
wind
direction
speed
knots
gust
knots
rain 1hr
in
rain 24hr
in
rain mn
in
humidity
%
barometer
mb
20220524030853 54 11 5.2 9.6 0.00 0.00 0.00 84 1022.5
20220524025840 54 35 7.8 9.6 0.00 0.00 0.00 84 1022.3
20220524025332 54 19 5.2 7.0 0.00 0.00 0.00 83 1022.4
20220524024826 54 309 6.1 12.2 0.00 0.00 0.00 83 1022.3
20220524023811 54 281 5.2 12.2 0.00 0.00 0.00 83 1022.3
20220524023304 55 9 4.3 9.6 0.00 0.00 0.00 82 1022.2
20220524022758 55 260 7.8 9.6 0.00 0.00 0.00 82 1022.1
20220524022250 55 0 8.7 8.7 0.00 0.00 0.00 82 1022.1
20220524021743 55 8 4.3 7.0 0.00 0.00 0.00 82 1022.2
20220524021237 55 333 2.6 12.2 0.00 0.00 0.00 82 1022.3
20220524020729 55 306 3.5 12.2 0.00 0.00 0.00 82 1022.3
20220524015715 56 320 8.7 12.2 0.00 0.00 0.00 81 1022.3
20220524015208 56 29 2.6 9.6 0.00 0.00 0.00 81 1022.4
20220524014701 56 313 6.1 9.6 0.00 0.00 0.00 80 1022.4
20220524014154 56 39 7.0 7.8 0.00 0.00 0.00 80 1022.3
20220524013647 56 305 7.0 13.0 0.00 0.00 0.00 79 1022.3
20220524013140 56 15 7.8 13.0 0.00 0.00 0.00 79 1022.4
20220524012633 57 347 5.2 13.0 0.00 0.00 0.00 78 1022.4
20220524012126 57 275 8.7 13.0 0.00 0.00 0.00 77 1022.5
20220524011112 58 46 6.1 13.0 0.00 0.00 0.00 77 1022.6
20220524010605 58 331 7.0 13.0 0.00 0.00 0.00 76 1022.6
20220524010059 59 338 7.8 10.4 0.00 0.00 0.00 77 1022.5
20220524005551 59 334 6.1 15.6 0.00 0.00 0.00 77 1022.6
20220524005044 59 11 7.0 15.6 0.00 0.00 0.00 76 1022.7
20220524004030 59 289 11.3 15.6 0.00 0.00 0.00 76 1022.7
20220524003523 59 340 2.6 10.4 0.00 0.00 0.00 75 1022.7
20220524003016 60 21 7.0 9.6 0.00 0.00 0.00 75 1022.7
20220524002509 60 340 3.5 13.0 0.00 0.00 0.00 75 1022.9
20220524002002 59 334 6.1 13.0 0.00 0.00 0.00 75 1022.8
20220524001455 60 316 5.2 13.0 0.00 0.00 0.00 74 1022.9
20220524000948 60 282 7.8 13.0 0.00 0.00 0.00 76 1023.0
20220524000441 60 12 8.7 12.2 0.00 0.00 0.00 76 1023.1
20220523235935 60 282 8.7 12.2 0.00 0.00 0.00 75 1023.3
20220523235427 60 296 7.8 12.2 0.00 0.00 0.00 75 1023.4
20220523234920 60 14 7.0 12.2 0.00 0.00 0.00 76 1023.4
20220523234413 60 21 4.3 10.4 0.00 0.00 0.00 76 1023.5
20220523233906 60 298 8.7 10.4 0.00 0.00 0.00 75 1023.5
20220523233359 60 23 8.7 9.6 0.00 0.00 0.00 76 1023.3
20220523231838 60 33 7.8 10.4 0.00 0.00 0.00 75 1023.5
20220523231331 60 9 7.0 10.4 0.00 0.00 0.00 76 1023.7
20220523225810 61 334 7.8 12.2 0.00 0.00 0.00 75 1023.8
20220523225303 61 357 5.2 12.2 0.00 0.00 0.00 76 1023.9
20220523224756 61 1 5.2 12.2 0.00 0.00 0.00 75 1023.8
20220523224249 61 291 7.8 12.2 0.00 0.00 0.00 75 1023.9
20220523223743 61 317 3.5 8.7 0.00 0.00 0.00 76 1023.9
20220523223235 60 4 5.2 8.7 0.00 0.00 0.00 76 1023.9
20220523222728 60 315 6.1 11.3 0.00 0.00 0.00 76 1023.9
20220523222221 60 22 7.8 11.3 0.00 0.00 0.00 77 1023.9
20220523221714 60 317 7.0 11.3 0.00 0.00 0.00 76 1023.9
20220523221207 60 329 7.0 11.3 0.00 0.00 0.00 76 1024.0
20220523220700 60 333 8.7 8.7 0.00 0.00 0.00 75 1023.9
20220523220153 61 295 6.1 7.8 0.00 0.00 0.00 77 1023.9
20220523215646 61 298 6.1 11.3 0.00 0.00 0.00 77 1023.8
20220523215141 60 292 2.6 11.3 0.00 0.00 0.00 78 1024.0
20220523214632 59 344 5.2 11.3 0.00 0.00 0.00 78 1024.0
20220523214125 59 333 7.8 12.2 0.00 0.00 0.00 78 1024.0
20220523213618 58 281 5.2 12.2 0.00 0.00 0.00 78 1024.0
20220523213111 59 337 7.8 12.2 0.00 0.00 0.00 77 1024.0
20220523212604 59 347 6.1 12.2 0.00 0.00 0.00 77 1024.1
20220523212057 59 350 7.0 11.3 0.00 0.00 0.00 78 1024.2
20220523211550 59 312 8.7 11.3 0.00 0.00 0.00 77 1024.1
20220523210030 60 9 4.3 10.4 0.00 0.00 0.00 75 1024.3
20220523205522 61 270 8.7 9.6 0.00 0.00 0.00 75 1024.4
20220523205016 61 350 5.2 9.6 0.00 0.00 0.00 75 1024.4
20220523202947 60 281 5.2 11.3 0.00 0.00 0.00 77 1024.5
20220523202440 59 287 6.1 8.7 0.00 0.00 0.00 77 1024.6
20220523201933 59 289 7.8 11.3 0.00 0.00 0.00 77 1024.8
20220523200921 59 327 9.6 11.3 0.00 0.00 0.00 77 1024.6
20220523200412 59 298 10.4 10.4 0.00 0.00 0.00 77 1024.6
20220523195358 60 323 7.8 13.9 0.00 0.00 0.00 76 1024.6
20220523194851 60 317 8.7 13.9 0.00 0.00 0.00 76 1024.7
20220523194346 60 312 7.8 10.4 0.00 0.00 0.00 75 1024.6
20220523193837 61 298 7.8 10.4 0.00 0.00 0.00 75 1024.7
20220523193330 62 357 5.2 7.8 0.00 0.00 0.00 76 1024.7
20220523192316 62 315 6.1 7.8 0.00 0.00 0.00 77 1024.9
20220523191809 61 292 2.6 7.8 0.00 0.00 0.00 79 1024.7
20220523191302 60 319 5.2 7.8 0.00 0.00 0.00 77 1024.7
20220523190756 61 327 6.1 7.8 0.00 0.00 0.00 77 1024.8
20220523190249 61 312 5.2 7.0 0.00 0.00 0.00 77 1024.7
20220523185236 60 305 5.2 7.8 0.00 0.00 0.00 78 1024.6
20220523184727 60 266 5.2 7.8 0.00 0.00 0.00 78 1024.6
20220523184220 60 331 5.2 7.8 0.00 0.00 0.00 78 1024.6
20220523182700 60 288 5.2 7.8 0.00 0.00 0.00 79 1024.7
20220523181138 59 338 6.1 7.8 0.00 0.00 0.00 79 1024.6
20220523175619 59 327 5.2 7.0 0.00 0.00 0.00 81 1024.7
20220523175110 59 350 4.3 7.0 0.00 0.00 0.00 81 1024.8
20220523174056 58 333 4.3 6.1 0.00 0.00 0.00 82 1024.8
20220523173549 57 305 5.2 7.8 0.00 0.00 0.00 82 1024.6
20220523173044 58 341 7.0 7.8 0.00 0.00 0.00 83 1024.7
20220523172027 58 284 5.2 7.0 0.00 0.00 0.00 84 1024.6
20220523171520 57 329 4.3 7.0 0.00 0.00 0.00 85 1024.7
20220523171013 57 315 5.2 7.0 0.00 0.00 0.00 85 1024.7
20220523170506 58 0 0.0 5.2 0.00 0.00 0.00 86 1024.8
20220523165959 57 57 4.3 6.1 0.00 0.00 0.00 88 1024.9
20220523164945 56 338 5.2 6.1 0.00 0.00 0.00 88 1025.0
20220523164439 55 330 6.1 6.1 0.00 0.00 0.00 88 1025.0
20220523163931 55 330 5.2 6.1 0.00 0.00 0.00 89 1024.9
20220523163424 55 315 2.6 6.1 0.00 0.00 0.00 89 1024.8
20220523162917 54 340 5.2 6.1 0.00 0.00 0.00 89 1024.8
20220523162410 54 322 4.3 6.1 0.00 0.00 0.00 89 1024.7
20220523161903 55 350 5.2 6.1 0.00 0.00 0.00 89 1024.7
20220523161356 55 336 5.2 6.1 0.00 0.00 0.00 89 1024.7
20220523160851 55 333 1.7 6.1 0.00 0.00 0.00 90 1024.6
20220523155835 54 341 4.3 6.1 0.00 0.00 0.00 91 1024.6
20220523155328 54 317 3.5 5.2 0.00 0.00 0.00 92 1024.7
20220523153807 54 357 1.7 4.3 0.00 0.00 0.00 93 1024.6
20220523153300 53 0 0.0 0.0 0.00 0.00 0.00 94 1024.5
20220523152753 53 292 0.9 3.5 0.00 0.00 0.00 94 1024.6
20220523152246 53 330 0.9 3.5 0.00 0.00 0.00 94 1024.3
20220523151232 53 322 0.9 2.6 0.00 0.00 0.00 94 1024.1
20220523145713 52 0 0.0 0.9 0.00 0.00 0.00 94 1024.0
20220523145204 52 0 0.0 0.9 0.00 0.00 0.00 94 1024.0
20220523144658 52 330 0.0 0.9 0.00 0.00 0.00 95 1024.0
20220523144151 52 0 0.0 0.0 0.00 0.00 0.00 95 1023.9
20220523143645 52 0 0.0 0.0 0.00 0.00 0.00 95 1024.0
20220523143643 52 0 0.0 0.0 0.00 0.00 0.00 95 1024.0
20220523143136 52 0 0.0 0.0 0.00 0.00 0.00 95 1024.0
20220523142629 52 0 0.0 0.0 0.00 0.00 0.00 95 1024.0
20220523142122 52 0 0.0 0.0 0.00 0.00 0.00 95 1023.8
20220523141108 52 0 0.0 0.0 0.00 0.00 0.00 96 1023.7
20220523140601 52 0 0.0 0.0 0.00 0.00 0.00 96 1023.7
20220523140054 52 0 0.0 0.0 0.00 0.00 0.00 96 1023.7
20220523135547 52 0 0.0 0.0 0.00 0.00 0.00 96 1023.6
20220523134535 52 0 0.0 0.0 0.00 0.00 0.00 96 1023.6
20220523134027 51 0 0.0 0.0 0.00 0.00 0.00 96 1023.8
20220523133520 51 0 0.0 0.0 0.00 0.00 0.00 96 1023.7
20220523133012 51 0 0.0 0.0 0.00 0.00 0.00 96 1023.6
20220523132505 51 0 0.0 0.0 0.00 0.00 0.00 96 1023.8
20220523131958 51 0 0.0 0.0 0.00 0.00 0.00 96 1023.8
20220523130944 51 0 0.0 0.0 0.00 0.00 0.00 96 1023.9
20220523130437 51 0 0.0 0.0 0.00 0.00 0.00 96 1023.9
20220523125930 51 0 0.0 0.0 0.00 0.00 0.00 96 1023.9
20220523125423 51 0 0.0 0.0 0.00 0.00 0.00 95 1023.8
20220523124916 51 0 0.0 0.0 0.00 0.00 0.00 95 1023.7
20220523124410 51 0 0.0 0.0 0.00 0.00 0.00 95 1023.8
20220523123902 51 0 0.0 0.0 0.00 0.00 0.00 95 1023.7
20220523123355 51 0 0.0 0.0 0.00 0.00 0.00 95 1023.7
20220523122848 51 0 0.0 0.0 0.00 0.00 0.00 95 1023.7
20220523122341 51 0 0.0 0.0 0.00 0.00 0.00 95 1023.7
20220523121327 51 0 0.0 0.0 0.00 0.00 0.00 95 1023.8
20220523120821 51 0 0.0 0.0 0.00 0.00 0.00 95 1023.8
20220523120313 51 0 0.0 0.0 0.00 0.00 0.00 95 1023.8
20220523115806 51 0 0.0 0.0 0.00 0.00 0.00 95 1023.8
20220523115259 51 0 0.0 0.0 0.00 0.00 0.00 95 1023.8
20220523114752 51 0 0.0 0.0 0.00 0.00 0.00 95 1023.8
20220523113231 51 0 0.0 0.0 0.00 0.00 0.00 95 1023.6
20220523112724 51 0 0.0 0.0 0.00 0.00 0.00 95 1023.6
20220523112217 51 0 0.0 0.0 0.00 0.00 0.00 96 1023.6
20220523111710 51 0 0.0 0.0 0.00 0.00 0.00 96 1023.6
20220523111202 51 0 0.0 0.0 0.00 0.00 0.00 96 1023.5
20220523110656 51 0 0.0 0.0 0.00 0.00 0.00 96 1023.4
20220523110149 51 0 0.0 0.0 0.00 0.00 0.00 96 1023.4
20220523105643 51 0 0.0 0.0 0.00 0.00 0.00 96 1023.4
20220523105135 51 0 0.0 0.0 0.00 0.00 0.00 96 1023.5
20220523104629 51 0 0.0 0.0 0.00 0.00 0.00 96 1023.5
20220523104122 51 0 0.0 0.0 0.00 0.00 0.00 96 1023.5
20220523103107 51 0 0.0 0.0 0.00 0.00 0.00 96 1023.6
20220523102600 51 0 0.0 0.0 0.00 0.00 0.00 96 1023.6
20220523102053 51 0 0.0 0.0 0.00 0.00 0.00 96 1023.6
20220523101546 51 0 0.0 0.0 0.00 0.00 0.00 96 1023.6
20220523100025 51 0 0.0 0.0 0.00 0.00 0.00 96 1023.5
20220523095014 51 0 0.0 0.0 0.00 0.00 0.00 96 1023.4
20220523094504 51 0 0.0 0.0 0.00 0.00 0.00 96 1023.4
20220523094000 51 0 0.0 0.0 0.00 0.00 0.00 96 1023.3
20220523093450 51 0 0.0 0.0 0.00 0.00 0.00 96 1023.4
20220523092943 51 0 0.0 0.0 0.00 0.00 0.00 96 1023.4
20220523092436 51 0 0.0 0.0 0.00 0.00 0.00 96 1023.5
20220523091929 51 0 0.0 0.0 0.00 0.00 0.00 96 1023.5
20220523091422 51 0 0.0 0.0 0.00 0.00 0.00 96 1023.5
20220523090915 51 0 0.0 0.0 0.00 0.00 0.00 96 1023.5
20220523090408 51 0 0.0 0.0 0.00 0.00 0.00 96 1023.5
20220523085901 51 0 0.0 1.7 0.00 0.00 0.00 96 1023.7
20220523085354 51 0 0.0 1.7 0.00 0.00 0.00 96 1023.8
20220523084847 51 0 0.0 1.7 0.00 0.00 0.00 96 1023.7
20220523084343 51 317 0.9 1.7 0.00 0.00 0.00 96 1023.7
20220523083833 51 0 0.0 3.5 0.00 0.00 0.00 96 1023.7
20220523083326 51 0 0.0 3.5 0.00 0.00 0.00 96 1023.6
20220523082312 51 334 0.9 2.6 0.00 0.00 0.00 96 1023.5
20220523081805 51 0 0.0 0.0 0.00 0.00 0.00 95 1023.4
20220523081258 51 0 0.0 2.6 0.00 0.00 0.00 95 1023.3
20220523080751 51 357 0.9 2.6 0.00 0.00 0.00 95 1023.3
20220523080244 51 0 0.0 2.6 0.00 0.00 0.00 95 1023.2
20220523075737 51 355 0.9 2.6 0.00 0.00 0.00 95 1023.2
20220523075230 51 334 0.9 1.7 0.00 0.00 0.00 95 1023.3
20220523074723 51 0 0.0 0.0 0.00 0.00 0.00 94 1023.3
20220523074216 51 0 0.0 0.0 0.00 0.00 0.00 94 1023.3
20220523073709 51 0 0.0 0.0 0.00 0.00 0.00 94 1023.2
20220523073202 51 0 0.0 0.0 0.00 0.00 0.00 94 1023.3
20220523072655 51 0 0.0 0.0 0.00 0.00 0.00 94 1023.3
20220523072148 51 0 0.0 0.0 0.00 0.00 0.00 94 1023.3
20220523071641 51 0 0.0 0.0 0.00 0.00 0.00 94 1023.4
20220523071134 51 0 0.0 0.0 0.00 0.00 0.00 94 1023.3
20220523070627 51 0 0.0 0.0 0.00 0.00 0.00 94 1023.2
20220523070121 51 0 0.0 0.0 0.00 0.00 0.00 93 1023.3
20220523065613 51 0 0.0 0.0 0.00 0.00 0.00 93 1023.3
20220523065106 51 0 0.0 0.0 0.00 0.00 0.00 93 1023.3
20220523064559 52 0 0.0 0.0 0.00 0.00 0.00 93 1023.2
20220523064052 52 0 0.0 0.0 0.00 0.00 0.00 93 1023.3
20220523063545 52 0 0.0 0.0 0.00 0.00 0.00 93 1023.3
20220523062531 52 0 0.0 0.0 0.00 0.00 0.00 93 1023.2
20220523062024 52 0 0.0 0.0 0.00 0.00 0.00 93 1023.4
20220523061517 52 0 0.0 0.0 0.00 0.00 0.00 93 1023.4
20220523061009 52 0 0.0 0.0 0.00 0.00 0.00 92 1023.4
20220523055955 52 0 0.0 0.0 0.00 0.00 0.00 92 1023.5
20220523055449 52 0 0.0 0.0 0.00 0.00 0.00 92 1023.4
20220523054941 52 0 0.0 0.0 0.00 0.00 0.00 92 1023.3
20220523054435 52 0 0.0 0.0 0.00 0.00 0.00 92 1023.2
20220523053927 52 0 0.0 0.0 0.00 0.00 0.00 92 1023.0
20220523053420 52 0 0.0 0.0 0.00 0.00 0.00 91 1023.2
20220523052913 52 0 0.0 0.0 0.00 0.00 0.00 91 1023.3
20220523052406 52 0 0.0 0.0 0.00 0.00 0.00 91 1023.3
20220523051859 52 0 0.0 0.0 0.00 0.00 0.00 90 1023.3
20220523051352 52 0 0.0 0.0 0.00 0.00 0.00 90 1023.4
20220523050846 53 0 0.0 0.0 0.00 0.00 0.00 90 1023.3
20220523050338 53 0 0.0 0.0 0.00 0.00 0.00 90 1023.3
20220523045831 53 0 0.0 0.0 0.00 0.00 0.00 90 1023.2
20220523045324 53 0 0.0 0.0 0.00 0.00 0.00 90 1023.1
20220523044819 53 0 0.0 0.0 0.00 0.00 0.00 90 1023.0
20220523044310 53 0 0.0 0.0 0.00 0.00 0.00 90 1023.0
20220523043803 53 0 0.0 0.0 0.00 0.00 0.00 90 1022.8
20220523043256 53 0 0.0 0.0 0.00 0.00 0.00 90 1022.8
20220523042749 53 0 0.0 0.0 0.00 0.00 0.00 90 1023.0
20220523042244 53 0 0.0 0.0 0.00 0.00 0.00 90 1023.0
20220523041737 53 0 0.0 0.0 0.00 0.00 0.00 90 1023.1
20220523041228 53 0 0.0 0.0 0.00 0.00 0.00 90 1023.0
20220523040721 53 0 0.0 0.0 0.00 0.00 0.00 90 1023.0
20220523040214 53 0 0.0 3.5 0.00 0.00 0.00 90 1022.9
20220523035707 52 0 0.0 3.5 0.00 0.00 0.00 90 1023.0
20220523035200 52 0 0.0 3.5 0.00 0.00 0.00 90 1022.9
20220523034653 52 0 0.0 2.6 0.00 0.00 0.00 90 1023.0
20220523034146 52 0 0.0 2.6 0.00 0.00 0.00 90 1023.1
20220523033639 52 0 0.0 2.6 0.00 0.00 0.00 90 1023.0
20220523033133 52 0 0.0 0.0 0.00 0.00 0.00 90 1023.0
20220523032625 52 0 0.0 4.3 0.00 0.00 0.00 89 1023.1
20220523032118 52 337 0.9 4.3 0.00 0.00 0.00 89 1023.0
20220523031611 52 299 1.7 4.3 0.00 0.00 0.00 89 1023.1
20220523031104 52 357 0.0 4.3 0.00 0.00 0.00 89 1023.2